Showing default

IRIDIUM 169, 43926

Orbit data source: Space-Track

IRIDIUM 169, 43926 is a payload satellite owned by Iridium (US) in LEO that was launched on Fri, 11 Jan 2019 UTC via an FALCON 9 launch vehicle from the Air Force Western Test Range (AFWTR). Payloads include a variety of satellites, spacecraft, and rockets equipped with specific instruments for various scientific and technological missions. These include communications satellites like Starlink; space stations such as the ISS; scientific satellites like the Hubble; Earth observation satellites from companies like Planet Labs, Umbra, and HawkEye 360; GPS; miniature CubeSats for education and research; and military/defense satellites.

Loading next visibility...
IRIDIUM 169 details
Identifier
43926, 2019-002E
Orbit
LEO
Last TLE update9 hours ago
Origin
Flag of USIridium (US)
ManufacturerNGIS SSG Gilbert
MissionOperational Commercial Communications
Bus & MotorELITEBUS, Unknown motor
Mass860 kg wet, 700 kg dry
Launch date (UTC)
2019-01-11 (6 years ago)
Launch vehicle
FALCON 9
Launch site
Air Force Western Test Range (AFWTR)
Object type
Payload
Rocket body
Debris
Shape & HBRTrap Box + 2 Pan, 9.4 m
Radar Cross Section14.423 m², Large (>1 m²)

Expand to show TLE details & history

TLE from 9 hours ago
0 IRIDIUM 169
1 43926U 19002E   24361.23834782  .00001376  00000-0  44338-3 0  9991
2 43926  86.4223 249.9534 0001335  30.0216 330.1058 14.38603256312881
Epoch: 2024-12-26T05:43Z
Definitive object data (Epoch: 2024-12-26T05:43:13.251Z)
Latitude-0.00009°
Longitude68.92757°
Altitude765.348 km
Speed7.472 km/s
True Right ascension16h 39m 48s
True Declination0° 00' 00"
Sunlit
Object was in daylight at TLE epoch
Visualization TLE readout
Latitude75.3367°
Longitude-124.97572°
Altitude775.822 km
Speed7.473 km/s
Apparent Right ascension02h 24m 03s
Apparent Declination23° 18' 19"
Sunlit
Object is in full shadow
Visualization observer readout
Local Sidereal Time13:54:51
Azimuth352.516° N
Elevation-26.413°
Doppler factor1
Orbital elements
Apogee altitude761.028 km
Perigee altitude759.122 km
Semi-major axis7,138.212 km
Eccentricity0.0001335
Inclination86.4223°
RAAN249.9534°
Arg. of periapsis30.0216°
True anomaly330.09817°
Mean anomaly330.1058°
Eccentric anomaly330.10199°
Mean motion3.59881 °/min
BSTAR0.00044338
Orbital period100.03 mins
Loading maneuver chart data...
Loading historical data...
Loading historical data...
Loading historical data...
Loading historical data...
Loading historical data...
Loading historical data...
Loading historical data...

IRIDIUM 169 Visibility forecast

Observer location: undefined°, undefined

Span
Click to sort rows by Start time (UTC) header in descending order
Start Az.
Max El. time (UTC)
Max El. Az.
Max El.
End time (UTC)
End Az.
8 mins2024-12-26 17:32:00.012Z188.15° SSW2024-12-26 17:35:00.012Z221.495° SW43.403°2024-12-26 17:40:00.012Z359.03° N
7 mins2024-12-27 04:01:00.012Z35.162° NE2024-12-27 04:04:00.012Z81.294° E22.742°2024-12-27 04:08:00.012Z133.321° SE
7 mins2024-12-27 05:41:00.012Z330.782° NNW2024-12-27 05:44:00.012Z282.918° WNW29.254°2024-12-27 05:48:00.012Z216.7° SW
|